Location: Waco, TX
(31.5480°N, 97.1670°W)
Time: 21:43:59
(UTC-06:00)

ISS - Pass Details

Date: 17 February 2019
Orbit: 403 x 411 km, 51.6° (Epoch: 22 February)

Event Time Altitude Azimuth Distance (km) Brightness Sun altitude
Rises 07:32:27 0° 200° (SSW) 2,300 0.0 4.1°
Reaches altitude 10° 07:34:44 10° 187° (S) 1,445 -0.9 4.5°
Maximum altitude 07:37:28 25° 129° (SE) 843 -0.9 5.1°
Drops below altitude 10° 07:40:14 10° 71° (ENE) 1,452 0.0 5.7°
Sets 07:42:31 0° 58° (ENE) 2,315 0.6 6.1°
